ZHANGHENG 1 (CSES) (43194 NORAD) Tracking and Keplerian Element Data

This shows tracking and keplerian element data for the satellite.

Feedback or suggestion? Click here.




ElementValue
Catalog43194
NameZHANGHENG 1 (CSES)
Epoch Orbit38894
Epoch Day35.13283406
Epoch Year2025
RAAN187.5277
Inclination97.6304
Eccentricity0.0007593
Argument of Perigee119.1901
Mean Anonmoly241.0094
Mean Motion15.21492688
Decay Rate0.00019731
L11 43194U 18015C 25035.13283406 .00019731 00000+0 87801-3 0 9995
L22 43194 97.6304 187.5277 0007593 119.1901 241.0094 15.21492688388943



Live tracking and technical data element details for ZHANGHENG 1 (CSES) (NORAD 43194). ZHANGHENG 1 (CSES) can be tracked NOW for your location showing map with azimuth and elevation plus other details from your city location.







IsCatalogInMostPopularTable: catalog: 43194, numindb: 789
Update: records affected: 1



GetName: 43194 ZHANGHENG 1 (CSES)

Hit Count: updated at: Fri, 18 Jul 2025 16:37:49 GMT